• Em Portugal
  • Lista de países
  • Para 7 dias
  • Temperatura da água
  • Mapas de satélite
  • Mapa do tempo
  • Widgets de tempo
  • user-avatar
    Iniciar Sessão

    Previsão horária em Gaborone

    Hoje, 20 Setembro, Quarta-feira

    Tempo Temperatura Precipitação Vento Pressão Humidade
    00:00 +23°C° 0 mm 1 m/s 680 mmHg 41%
    01:00 +23°C° 0 mm 1 m/s 680 mmHg 43%
    02:00 +22°C° 0 mm 1 m/s 680 mmHg 49%
    03:00 +21°C° 0 mm 1 m/s 680 mmHg 53%
    04:00 +21°C° 0 mm 1 m/s 680 mmHg 56%
    05:00 +19°C° 0 mm 2 m/s 680 mmHg 59%
    06:00 +20°C° 0 mm 2 m/s 681 mmHg 58%
    07:00 +21°C° 0 mm 3 m/s 681 mmHg 56%
    08:00 +22°C° 0 mm 4 m/s 682 mmHg 54%
    09:00 +26°C° 0 mm 4 m/s 682 mmHg 46%
    10:00 +28°C° 0 mm 4 m/s 682 mmHg 38%
    11:00 +32°C° 0 mm 4 m/s 683 mmHg 30%
    12:00 +33°C° 0 mm 4 m/s 682 mmHg 26%
    13:00 +34°C° 0 mm 4 m/s 682 mmHg 23%
    14:00 +35°C° 0 mm 3 m/s 681 mmHg 19%
    15:00 +35°C° 0 mm 3 m/s 681 mmHg 19%
    16:00 +35°C° 0 mm 3 m/s 680 mmHg 19%
    17:00 +35°C° 0 mm 3 m/s 680 mmHg 19%
    18:00 +33°C° 0 mm 3 m/s 680 mmHg 21%
    19:00 +30°C° 0 mm 2 m/s 680 mmHg 24%
    20:00 +28°C° 0 mm 2 m/s 680 mmHg 27%
    21:00 +28°C° 0 mm 2 m/s 681 mmHg 28%
    22:00 +27°C° 0 mm 3 m/s 681 mmHg 30%
    23:00 +26°C° 0 mm 3 m/s 681 mmHg 32%

    Amanhã, 21 Setembro, Quinta-feira

    Tempo Temperatura Precipitação Vento Pressão Humidade
    00:00 +25°C° 0 mm 3 m/s 681 mmHg 36%
    01:00 +25°C° 0 mm 4 m/s 681 mmHg 40%
    02:00 +23°C° 0 mm 4 m/s 681 mmHg 44%
    03:00 +22°C° 0 mm 4 m/s 681 mmHg 48%
    04:00 +22°C° 0 mm 4 m/s 681 mmHg 52%
    05:00 +21°C° 0 mm 4 m/s 681 mmHg 56%
    06:00 +22°C° 0 mm 4 m/s 681 mmHg 54%
    07:00 +22°C° 0 mm 5 m/s 682 mmHg 52%
    08:00 +23°C° 0 mm 6 m/s 682 mmHg 49%
    09:00 +26°C° 0 mm 6 m/s 683 mmHg 43%
    10:00 +28°C° 0 mm 6 m/s 683 mmHg 37%
    11:00 +30°C° 0 mm 6 m/s 683 mmHg 31%
    12:00 +32°C° 0 mm 6 m/s 682 mmHg 28%
    13:00 +33°C° 0 mm 6 m/s 682 mmHg 24%
    14:00 +35°C° 0 mm 6 m/s 681 mmHg 21%
    15:00 +34°C° 0 mm 6 m/s 680 mmHg 21%
    16:00 +34°C° 0 mm 6 m/s 680 mmHg 20%
    17:00 +34°C° 0 mm 5 m/s 680 mmHg 20%
    18:00 +32°C° 0 mm 5 m/s 680 mmHg 23%
    19:00 +29°C° 0 mm 4 m/s 680 mmHg 25%
    20:00 +28°C° 0 mm 3 m/s 680 mmHg 28%
    21:00 +27°C° 0 mm 3 m/s 680 mmHg 29%
    22:00 +26°C° 0 mm 3 m/s 681 mmHg 31%
    23:00 +25°C° 0 mm 3 m/s 681 mmHg 32%

    Depois de amanhã, 22 Setembro, Sexta-feira

    Tempo Temperatura Precipitação Vento Pressão Humidade
    00:00 +25°C° 0 mm 3 m/s 681 mmHg 34%
    01:00 +24°C° 0 mm 3 m/s 680 mmHg 36%
    02:00 +22°C° 0 mm 3 m/s 680 mmHg 37%
    03:00 +21°C° 0 mm 3 m/s 679 mmHg 40%
    04:00 +20°C° 0 mm 3 m/s 679 mmHg 42%
    05:00 +20°C° 0 mm 3 m/s 679 mmHg 45%
    06:00 +21°C° 0 mm 4 m/s 679 mmHg 43%
    07:00 +22°C° 0 mm 4 m/s 680 mmHg 40%
    08:00 +23°C° 0 mm 5 m/s 680 mmHg 38%
    09:00 +26°C° 0 mm 5 m/s 681 mmHg 32%
    10:00 +29°C° 0 mm 5 m/s 681 mmHg 26%
    11:00 +32°C° 0 mm 5 m/s 681 mmHg 20%
    12:00 +33°C° 0 mm 5 m/s 681 mmHg 17%
    13:00 +35°C° 0 mm 5 m/s 680 mmHg 14%
    14:00 +36°C° 0 mm 4 m/s 680 mmHg 11%
    15:00 +36°C° 0 mm 4 m/s 679 mmHg 11%
    16:00 +36°C° 0 mm 3 m/s 679 mmHg 11%
    17:00 +36°C° 0 mm 3 m/s 678 mmHg 10%
    18:00 +34°C° 0 mm 2 m/s 679 mmHg 12%
    19:00 +31°C° 0 mm 2 m/s 679 mmHg 13%
    20:00 +28°C° 0 mm 2 m/s 679 mmHg 15%
    21:00 +28°C° 0 mm 2 m/s 679 mmHg 16%
    22:00 +27°C° 0 mm 2 m/s 679 mmHg 18%
    23:00 +26°C° 0 mm 2 m/s 679 mmHg 19%

    23 Setembro, Sábado

    Tempo Temperatura Precipitação Vento Pressão Humidade
    00:00 +25°C° 0 mm 2 m/s 679 mmHg 21%
    01:00 +25°C° 0 mm 2 m/s 678 mmHg 24%
    02:00 +24°C° 0 mm 2 m/s 678 mmHg 26%
    03:00 +23°C° 0 mm 2 m/s 678 mmHg 28%
    04:00 +21°C° 0 mm 2 m/s 678 mmHg 30%
    05:00 +21°C° 0 mm 2 m/s 678 mmHg 32%
    06:00 +23°C° 0 mm 2 m/s 679 mmHg 30%
    07:00 +25°C° 0 mm 2 m/s 680 mmHg 27%
    08:00 +26°C° 0 mm 3 m/s 681 mmHg 25%
    09:00 +29°C° 0 mm 3 m/s 681 mmHg 21%
    10:00 +33°C° 0 mm 3 m/s 681 mmHg 17%
    11:00 +35°C° 0 mm 4 m/s 681 mmHg 13%
    12:00 +36°C° 0 mm 3 m/s 681 mmHg 12%
    13:00 +38°C° 0 mm 3 m/s 680 mmHg 10%
    14:00 +39°C° 0 mm 3 m/s 679 mmHg 9%
    15:00 +39°C° 0 mm 3 m/s 679 mmHg 9%
    16:00 +39°C° 0 mm 3 m/s 679 mmHg 9%
    17:00 +38°C° 0 mm 3 m/s 678 mmHg 9%
    18:00 +36°C° 0 mm 3 m/s 679 mmHg 10%
    19:00 +34°C° 0 mm 2 m/s 679 mmHg 12%
    20:00 +31°C° 0 mm 2 m/s 679 mmHg 13%
    21:00 +31°C° 0 mm 3 m/s 679 mmHg 13%
    22:00 +30°C° 0 mm 4 m/s 679 mmHg 13%
    23:00 +29°C° 0 mm 4 m/s 679 mmHg 13%

    24 Setembro, Domingo

    Tempo Temperatura Precipitação Vento Pressão Humidade
    00:00 +28°C° 0 mm 4 m/s 679 mmHg 19%
    01:00 +27°C° 0 mm 5 m/s 679 mmHg 25%
    02:00 +26°C° 0 mm 5 m/s 679 mmHg 31%
    03:00 +25°C° 0 mm 5 m/s 679 mmHg 40%
    04:00 +22°C° 0 mm 5 m/s 680 mmHg 49%
    05:00 +21°C° 0 mm 6 m/s 680 mmHg 58%
    06:00 +21°C° 0 mm 6 m/s 681 mmHg 58%
    07:00 +21°C° 0 mm 6 m/s 681 mmHg 57%
    08:00 +21°C° 0 mm 7 m/s 682 mmHg 57%
    09:00 +23°C° 0 mm 7 m/s 682 mmHg 51%
    10:00 +24°C° 0 mm 7 m/s 682 mmHg 46%
    11:00 +27°C° 0 mm 7 m/s 682 mmHg 40%
    12:00 +28°C° 0 mm 7 m/s 682 mmHg 36%
    13:00 +30°C° 0 mm 7 m/s 681 mmHg 33%
    14:00 +32°C° 0 mm 7 m/s 680 mmHg 29%
    15:00 +32°C° 0 mm 7 m/s 680 mmHg 29%
    16:00 +32°C° 0 mm 6 m/s 679 mmHg 28%
    17:00 +32°C° 0 mm 6 m/s 679 mmHg 28%
    18:00 +29°C° 0 mm 5 m/s 679 mmHg 32%
    19:00 +28°C° 0 mm 5 m/s 680 mmHg 35%
    20:00 +26°C° 0 mm 4 m/s 680 mmHg 39%
    21:00 +25°C° 0 mm 5 m/s 680 mmHg 43%
    22:00 +23°C° 0 mm 5 m/s 680 mmHg 46%
    23:00 +23°C° 0 mm 6 m/s 680 mmHg 50%

    25 Setembro, Segunda-feira

    Tempo Temperatura Precipitação Vento Pressão Humidade
    00:00 +22°C° 0 mm 6 m/s 679 mmHg 53%
    01:00 +21°C° 0 mm 6 m/s 679 mmHg 56%
    02:00 +20°C° 0 mm 6 m/s 678 mmHg 60%
    03:00 +19°C° 0 mm 5 m/s 678 mmHg 63%
    04:00 +19°C° 0 mm 5 m/s 678 mmHg 66%
    05:00 +17°C° 0 mm 5 m/s 678 mmHg 69%
    06:00 +19°C° 0 mm 5 m/s 678 mmHg 66%
    07:00 +19°C° 0 mm 6 m/s 678 mmHg 63%
    08:00 +20°C° 0 mm 6 m/s 679 mmHg 61%
    09:00 +22°C° 0 mm 6 m/s 679 mmHg 52%
    10:00 +26°C° 0 mm 6 m/s 679 mmHg 43%
    11:00 +29°C° 0 mm 6 m/s 679 mmHg 35%
    12:00 +32°C° 0 mm 6 m/s 678 mmHg 29%
    13:00 +34°C° 0 mm 5 m/s 677 mmHg 23%
    14:00 +37°C° 0 mm 5 m/s 677 mmHg 17%
    15:00 +37°C° 0 mm 5 m/s 676 mmHg 17%
    16:00 +37°C° 0 mm 5 m/s 676 mmHg 16%
    17:00 +37°C° 0 mm 5 m/s 675 mmHg 15%
    18:00 +35°C° 0 mm 4 m/s 675 mmHg 17%
    19:00 +33°C° 0 mm 4 m/s 675 mmHg 19%
    20:00 +30°C° 0 mm 3 m/s 675 mmHg 21%
    21:00 +29°C° 0 mm 3 m/s 675 mmHg 23%
    22:00 +28°C° 0 mm 4 m/s 674 mmHg 24%
    23:00 +27°C° 0 mm 4 m/s 674 mmHg 26%
    Mostrar mais